Lafayette, CO

1:02 PM MST on January 24, 2017 (GMT -0700)
Erie Municipal Airport

Weather History for KEIK - June, 2013

Change the Weather History Date:

Wednesday, June 26, 2013

  Actual Average (KBJC) Record (KBJC)
Temperature  
Mean Temperature 76 °F -  
Max Temperature 97 °F 83 °F 96 °F (2012)
Min Temperature 54 °F 57 °F 46 °F (1985)
Cooling Degree Days 10    
Growing Degree Days 26 (Base 50)    
Moisture  
Dew Point 36 °F    
Average Humidity 28    
Maximum Humidity 61    
Minimum Humidity 9    
Precipitation  
Precipitation 0.00 in - - ()
Sea Level Pressure  
Sea Level Pressure 30.09 in    
Wind  
Wind Speed 2 mph (SE)    
Max Wind Speed 10 mph    
Max Gust Speed -    
Visibility 10 miles    
Events      
Averages and records for this station are not official NWS values.
T = Trace of Precipitation, MM = Missing Value Source: NWS Daily Summary

Daily Weather History Graph

Daily Weather History Graph

Search for Another Location

Airport or City:

Trip Planner

Search our weather history database for the weather conditions in past years. The results will help you decide how hot, cold, wet, or windy it might be!

Date:

Astronomy

Jun. 26, 2013 Rise Set
Actual Time 5:33 AM MDT 8:33 PM MDT
Civil Twilight 5:00 AM MDT 9:05 PM MDT
Nautical Twilight 4:18 AM MDT 9:47 PM MDT
Astronomical Twilight 3:29 AM MDT 10:36 PM MDT
Moon 10:57 PM MDT (6/26) 9:27 AM MDT (6/26)
Length of Visible Light 16h 05m
Length of Day
15h 00m
Waning Gibbous, 85% of the Moon is Illuminated
Jun 26
Waning Gibbous
Jun 29
Last Quarter
Jul 8
New
Jul 15
First Quarter
Jul 22
Full

Hourly Weather History & Observations

Time (MDT) Temp. Dew Point Humidity Pressure Visibility Wind Dir Wind Speed Gust Speed Precip Events Conditions
12:15 AM 65.5 °F 37.8 °F 36% 30.06 in 10.0 mi South 3.5 mph - N/A   Clear
12:35 AM 64.4 °F 38.3 °F 38% 30.06 in 10.0 mi Calm Calm - N/A   Clear
12:55 AM 62.1 °F 39.7 °F 44% 30.07 in 10.0 mi Calm Calm - N/A   Clear
1:15 AM 60.4 °F 39.9 °F 47% 30.06 in 10.0 mi Calm Calm - N/A   Clear
1:35 AM 58.1 °F 40.1 °F 51% 30.06 in 10.0 mi SW 3.5 mph - N/A   Clear
1:55 AM 59.0 °F 39.9 °F 49% 30.06 in 10.0 mi Calm Calm - N/A   Clear
2:15 AM 57.2 °F 39.6 °F 52% 30.06 in 10.0 mi Calm Calm - N/A   Clear
2:35 AM 58.5 °F 39.7 °F 50% 30.06 in 10.0 mi Calm Calm - N/A   Clear
2:55 AM 56.7 °F 40.3 °F 54% 30.06 in 10.0 mi Calm Calm - N/A   Clear
3:15 AM 55.9 °F 39.9 °F 55% 30.06 in 10.0 mi Calm Calm - N/A   Clear
3:35 AM 56.3 °F 40.5 °F 55% 30.06 in 10.0 mi Calm Calm - N/A   Clear
3:55 AM 56.8 °F 40.1 °F 54% 30.06 in 10.0 mi Calm Calm - N/A   Clear
4:15 AM 55.4 °F 39.9 °F 56% 30.07 in 10.0 mi South 4.6 mph - N/A   Clear
4:35 AM 57.2 °F 39.6 °F 52% 30.07 in 10.0 mi SSW 4.6 mph - N/A   Clear
4:55 AM 54.1 °F 40.6 °F 60% 30.07 in 10.0 mi SSW 4.6 mph - N/A   Clear
5:15 AM 57.9 °F 39.6 °F 50% 30.08 in 10.0 mi Calm Calm - N/A   Clear
5:35 AM 56.1 °F 39.9 °F 55% 30.08 in 10.0 mi Calm Calm - N/A   Clear
5:55 AM 54.1 °F 40.8 °F 61% 30.10 in 10.0 mi Calm Calm - N/A   Clear
6:15 AM 54.1 °F 40.8 °F 61% 30.11 in 10.0 mi Calm Calm - N/A   Clear
6:35 AM 59.2 °F 41.5 °F 52% 30.11 in 10.0 mi SSE 3.5 mph - N/A   Clear
6:55 AM 61.9 °F 42.3 °F 49% 30.11 in 10.0 mi Calm Calm - N/A   Clear
7:15 AM 64.2 °F 41.2 °F 43% 30.12 in 10.0 mi Calm Calm - N/A   Clear
7:35 AM 67.5 °F 42.4 °F 40% 30.12 in 10.0 mi NNW 4.6 mph - N/A   Clear
7:55 AM 70.5 °F 42.1 °F 36% 30.13 in 10.0 mi NNW 4.6 mph - N/A   Clear
8:15 AM 72.0 °F 39.0 °F 30% 30.13 in 10.0 mi NW 3.5 mph - N/A   Clear
8:35 AM 73.6 °F 37.9 °F 27% 30.13 in 10.0 mi Calm Calm - N/A   Clear
8:55 AM 75.6 °F 38.3 °F 26% 30.14 in 10.0 mi Calm Calm - N/A   Clear
9:15 AM 77.5 °F 38.5 °F 25% 30.13 in 10.0 mi Calm Calm - N/A   Clear
9:35 AM 79.0 °F 37.9 °F 23% 30.13 in 10.0 mi Calm Calm - N/A   Clear
9:55 AM 81.3 °F 35.8 °F 19% 30.13 in 10.0 mi Calm Calm - N/A   Clear
10:15 AM 82.4 °F 35.4 °F 19% 30.13 in 10.0 mi East 3.5 mph - N/A   Clear
10:35 AM 85.8 °F 32.9 °F 15% 30.13 in 10.0 mi Calm Calm - N/A   Clear
10:55 AM 88.2 °F 34.5 °F 15% 30.13 in 10.0 mi SE 5.8 mph - N/A   Clear
11:15 AM 88.5 °F 33.8 °F 14% 30.12 in 10.0 mi SSE 4.6 mph - N/A   Clear
11:35 AM 90.1 °F 32.2 °F 13% 30.12 in 10.0 mi Calm Calm - N/A   Clear
11:55 AM 91.2 °F 31.1 °F 12% 30.11 in 10.0 mi Calm Calm - N/A   Clear
12:15 PM 92.3 °F 31.3 °F 11% 30.11 in 10.0 mi ENE 5.8 mph - N/A   Clear
12:35 PM 93.0 °F 30.6 °F 11% 30.11 in 10.0 mi SSE 8.1 mph - N/A   Clear
12:55 PM 92.8 °F 30.4 °F 11% 30.10 in 10.0 mi SSE 10.4 mph - N/A   Clear
1:15 PM 93.6 °F 29.8 °F 10% 30.09 in 10.0 mi SE 3.5 mph - N/A   Clear
1:35 PM 93.7 °F 30.6 °F 11% 30.09 in 10.0 mi ENE 6.9 mph - N/A   Clear
1:55 PM 95.4 °F 29.8 °F 10% 30.08 in 10.0 mi SSW 9.2 mph - N/A   Clear
2:15 PM 94.1 °F 28.9 °F 10% 30.08 in 10.0 mi West 3.5 mph - N/A   Clear
2:35 PM 96.1 °F 30.4 °F 10% 30.08 in 10.0 mi ESE 8.1 mph - N/A   Clear
2:55 PM 96.3 °F 29.5 °F 9% 30.07 in 10.0 mi South 9.2 mph - N/A   Clear
3:15 PM 96.4 °F 29.8 °F 9% 30.07 in 10.0 mi SE 9.2 mph - N/A   Clear
3:35 PM 96.6 °F 29.1 °F 9% 30.06 in 10.0 mi South 4.6 mph - N/A   Clear
3:55 PM 96.8 °F 29.5 °F 9% 30.05 in 10.0 mi SE 6.9 mph - N/A   Clear
4:15 PM 96.6 °F 28.9 °F 9% 30.05 in 10.0 mi Calm Calm - N/A   Clear
4:35 PM 97.5 °F 29.5 °F 9% 30.05 in 10.0 mi SE 4.6 mph - N/A   Clear
4:55 PM 97.2 °F 30.4 °F 9% 30.05 in 10.0 mi Calm Calm - N/A   Clear
5:15 PM 97.0 °F 29.1 °F 9% 30.05 in 10.0 mi South 4.6 mph - N/A   Clear
5:35 PM 97.2 °F 29.5 °F 9% 30.04 in 10.0 mi SE 4.6 mph - N/A   Clear
5:55 PM 96.8 °F 29.3 °F 9% 30.04 in 10.0 mi ESE 4.6 mph - N/A   Clear
6:15 PM 96.8 °F 29.3 °F 9% 30.04 in 10.0 mi ESE 4.6 mph - N/A   Clear
6:35 PM 95.9 °F 29.7 °F 10% 30.04 in 10.0 mi SSE 5.8 mph - N/A   Clear
6:55 PM 95.9 °F 30.2 °F 10% 30.04 in 10.0 mi ESE 9.2 mph - N/A   Clear
7:15 PM 93.2 °F 29.7 °F 10% 30.05 in 10.0 mi East 8.1 mph - N/A   Clear
7:35 PM 91.8 °F 31.3 °F 12% 30.05 in 10.0 mi East 6.9 mph - N/A   Clear
7:55 PM 89.6 °F 31.5 °F 13% 30.06 in 10.0 mi East 3.5 mph - N/A   Clear
8:15 PM 87.8 °F 32.0 °F 14% 30.06 in 10.0 mi East 5.8 mph - N/A   Clear
8:35 PM 82.8 °F 35.6 °F 18% 30.07 in 10.0 mi ESE 6.9 mph - N/A   Clear
8:55 PM 79.3 °F 36.3 °F 21% 30.08 in 10.0 mi NW 6.9 mph - N/A   Clear
9:15 PM 79.2 °F 36.7 °F 22% 30.09 in 10.0 mi Calm Calm - N/A   Clear
9:35 PM 77.9 °F 38.5 °F 24% 30.10 in 10.0 mi Calm Calm - N/A   Clear
9:55 PM 77.0 °F 38.8 °F 25% 30.10 in 10.0 mi SSW 3.5 mph - N/A   Clear
10:15 PM 75.9 °F 39.2 °F 27% 30.11 in 10.0 mi Calm Calm - N/A   Clear
10:35 PM 74.8 °F 39.4 °F 28% 30.11 in 10.0 mi Calm Calm - N/A   Clear
10:55 PM 73.6 °F 40.5 °F 30% 30.11 in 10.0 mi Calm Calm - N/A   Clear
11:15 PM 70.2 °F 41.7 °F 36% 30.11 in 10.0 mi Calm Calm - N/A   Clear
11:35 PM 68.7 °F 42.1 °F 38% 30.11 in 10.0 mi Calm Calm - N/A   Clear
11:55 PM 67.5 °F 44.8 °F 44% 30.11 in 10.0 mi Calm Calm - N/A   Clear